www.pogodaiklimat.ru

Погода и климат >> Архив погоды >> Япония >> Айкава


ПОГОДА в Айкаве

  • Прогноз погоды в Айкаве
  • Монитор погоды в Айкаве

АРХИВ ПОГОДЫ в Айкаве

Время (UTC), дата Ветер
(напр.,м/с)
 
Видим.   Явления Облачность Т
(С)
Тd
(С)
f
(%)
Тe
(С)
Тes
(С)
Комфортность P
(гПа)
Po
(гПа)
Тmin
(С)
Tmax
(С)
R
(мм)
R24
(мм)
S
(см)
10 17.06 СЗ 2 14 км н/о +16.8 +15.0 89 +17 +17 1013.6 1012.7
11 17.06 С 2 12 км н/о +16.4 +15.3 93 +16 +16 1013.8 1012.9
12 17.06 СВ 1 16 км {дождь} н/о +16.1 +15.1 94 +17 +17 1014.5 1013.6 +19.2 2
13 17.06 В 2 11 км н/о +15.3 +14.4 94 +15 +15 1014.5 1013.6
14 17.06 В 3 11 км н/о +15.4 +14.5 94 +15 +15 1014.6 1013.7
15 17.06 В 2 11 км н/о +15.7 +14.8 94 +16 +16 1014.6 1013.7
16 17.06 В 2 14 км н/о +16.2 +15.1 93 +16 +16 1014.6 1013.7
17 17.06 ЮВ 3 15 км н/о +16.1 +15.1 94 +16 +16 1014.2 1013.3
18 17.06 ЮВ 4 11 км н/о +15.8 +14.9 94 +15 +15 1014.0 1013.1
19 17.06 ЮВ 4 13 км н/о +15.6 +14.8 95 +15 +15 1013.7 1012.8
20 17.06 В 4 16 км н/о +15.9 +14.9 94 +15 +15 1013.6 1012.7
21 17.06 В 3 14 км н/о +16.8 +15.2 90 +17 +17 1013.1 1012.2
22 17.06 ЮВ 1 16 км н/о +18.8 +14.9 78 +21 +21 комфорт 1013.1 1012.3
23 17.06 З 2 15 км н/о +18.3 +14.6 79 +19 +19 1013.3 1012.5
00 18.06 СЗ 2 13 км н/о +19.8 +15.7 77 +23 +23 комфорт 1013.3 1012.5 +15.0
01 18.06 СЗ 4 18 км н/о +20.1 +15.5 75 +23 +23 комфорт 1012.7 1011.9
02 18.06 СЗ 4 18 км н/о +19.8 +15.0 74 +22 +22 комфорт 1012.2 1011.4
03 18.06 СЗ 3 20 км н/о +20.7 +15.5 72 +24 +24 комфорт 1012.0 1011.2
04 18.06 СЗ 3 19 км н/о +21.4 +16.2 72 +25 +25 комфорт 1011.3 1010.5
05 18.06 СЗ 4 18 км н/о +20.4 +15.0 71 +23 +23 комфорт 1011.3 1010.5
06 18.06 С 5 20 км н/о +21.0 +14.9 68 +24 +24 комфорт 1010.9 1010.1
07 18.06 СЗ 3 20 км н/о +21.3 +15.2 68 +24 +24 комфорт 1010.6 1009.8
08 18.06 СЗ 4 17 км н/о +20.8 +14.2 66 +24 +24 комфорт 1009.9 1009.1
09 18.06 З 2 20 км н/о +20.6 +13.3 63 +24 +24 комфорт 1010.1 1009.3
10 18.06 Ю 2 14 км н/о +19.5 +15.4 77 +22 +22 комфорт 1010.3 1009.5
11 18.06 СВ 2 12 км н/о +18.1 +14.8 81 +19 +19 1010.4 1009.6
12 18.06 В 5 15 км н/о +18.9 +15.0 78 +20 +20 1010.5 1009.7 +22.1
13 18.06 В 4 14 км н/о +19.0 +14.7 76 +20 +20 1010.2 1009.4
14 18.06 В 5 13 км н/о +18.8 +14.7 77 +19 +19 1009.9 1009.1
15 18.06 В 3 14 км н/о +19.6 +14.4 72 +22 +22 комфорт 1009.6 1008.8
16 18.06 В 5 8000 м дым н/о +19.6 +14.2 71 +21 +21 комфорт 1008.8 1008.0
17 18.06 В 2 17 км слаб. дождь н/о +18.8 +15.5 81 +21 +21 комфорт 1009.0 1008.2
18 18.06 ЮВ 4 5000 м дождь н/о +17.8 +16.0 89 +18 +18 1008.7 1007.9 2
19 18.06 ЮВ 6 15 км в посл. час дождь н/о +18.5 +15.8 84 +19 +19 1008.2 1007.4
20 18.06 В 5 18 км слаб. дождь н/о +19.1 +16.2 83 +20 +20 1008.3 1007.5
21 18.06 ЮВ 3 13 км слаб. дождь н/о +18.3 +16.6 90 +19 +19 1008.2 1007.4
22 18.06 ЮВ 3 2600 м дождь н/о +18.1 +16.8 92 +19 +19 1009.1 1008.3
23 18.06 ЮВ 4 18 км слаб. дождь н/о +18.1 +17.0 93 +18 +18 1008.9 1008.1
00 19.06 ЮВ 4 9000 м слаб. дождь н/о +18.3 +17.0 92 +19 +19 1008.6 1007.8 +17.5 15
01 19.06 Ю 3 3700 м дождь н/о +18.2 +17.4 95 +19 +19 1008.7 1007.9
02 19.06 Ю 2 4100 м слаб. дождь н/о +17.6 +16.8 95 +18 +18 1008.7 1007.9
03 19.06 ЮВ 3 4500 м дождь н/о +17.8 +17.0 95 +18 +18 1008.2 1007.4
04 19.06 ЮВ 2 9000 м в посл. час дождь н/о +18.1 +17.3 95 +19 +19 1007.6 1006.8
05 19.06 ЮВ 2 4400 м дождь н/о +18.0 +17.4 96 +19 +19 1007.2 1006.4
06 19.06 В 1 2600 м дождь н/о +18.1 +17.5 96 +19 +19 1007.1 1006.3 21
07 19.06 В 1 7000 м слаб. дождь н/о +18.4 +17.8 96 +20 +20 1006.9 1006.1
08 19.06 Ю 1 15 км в посл. час дождь н/о +19.5 +18.0 91 +23 +23 комфорт 1006.4 1005.6
09 19.06 ЮВ 3 10 км {дождь} н/о +19.4 +17.9 91 +22 +22 комфорт 1006.2 1005.4
10 19.06 В 4 11 км н/о +18.3 +17.2 93 +19 +19 1006.2 1005.4
11 19.06 В 2 9000 м дымка н/о +17.4 +16.6 95 +18 +18 1006.7 1005.9
12 19.06 В 3 8000 м дымка {дождь} н/о +17.6 +16.8 95 +18 +18 1007.2 1006.4 +19.8 24
13 19.06 В 4 9000 м дымка н/о +17.2 +16.2 94 +17 +17 1006.9 1006.1
14 19.06 В 3 11 км н/о +17.2 +16.2 94 +17 +17 1006.6 1005.8
15 19.06 В 1 9000 м дымка н/о +16.3 +15.7 96 +18 +18 1006.4 1005.6
16 19.06 В 1 11 км н/о +16.1 +15.6 97 +17 +17 1005.9 1005.1
17 19.06 В 1 9000 м дымка н/о +16.1 +15.6 97 +17 +17 1005.6 1004.8
18 19.06 ЮВ 1 9000 м дымка н/о +15.8 +15.2 96 +17 +17 1005.8 1004.9
19 19.06 В 1 7000 м дымка н/о +15.7 +15.2 97 +17 +17 1006.0 1005.1
20 19.06 В 3 9000 м дымка н/о +16.0 +15.4 96 +15 +15 1006.4 1005.5
21 19.06 В 1 9000 м дымка н/о +17.1 +16.0 93 +19 +19 1006.4 1005.6
22 19.06 Ю 1 8000 м дымка н/о +19.5 +17.5 88 +23 +23 комфорт 1006.6 1005.8
23 19.06 СЗ 5 12 км н/о +19.4 +17.0 86 +21 +21 комфорт 1007.0 1006.2
00 20.06 СЗ 2 13 км н/о +20.4 +17.6 84 +25 +25 комфорт 1006.6 1005.8 +15.5
01 20.06 З 2 12 км н/о +22.1 +17.9 77 +27 +27 душно 1006.9 1006.1
02 20.06 З 4 19 км н/о +21.2 +17.4 79 +25 +25 комфорт 1007.0 1006.2
03 20.06 СЗ 2 15 км н/о +21.6 +16.8 74 +26 +26 душно 1007.2 1006.4
04 20.06 З 3 13 км н/о +22.0 +18.0 78 +27 +27 душно 1007.1 1006.3
05 20.06 СЗ 3 18 км н/о +22.7 +17.2 71 +28 +28 душно 1006.6 1005.8
06 20.06 СЗ 5 20 км н/о +22.6 +15.9 66 +27 +27 душно 1006.6 1005.8
07 20.06 СЗ 6 20 км н/о +21.9 +16.2 70 +26 +26 душно 1006.6 1005.8
08 20.06 СЗ 4 20 км н/о +21.5 +15.8 70 +25 +25 комфорт 1006.4 1005.6
09 20.06 СЗ 3 20 км н/о +21.4 +15.9 71 +25 +25 комфорт 1007.0 1006.2
10 20.06 СЗ 4 16 км н/о +20.8 +16.2 75 +24 +24 комфорт 1007.6 1006.8
11 20.06 В 2 12 км н/о +18.6 +16.4 87 +20 +20 1008.2 1007.4
12 20.06 В 4 9000 м дымка н/о +18.8 +16.8 88 +20 +20 1008.5 1007.7 +23.0
13 20.06 ЮВ 4 9000 м дымка н/о +18.5 +16.7 89 +19 +19 1008.9 1008.1
14 20.06 ЮВ 2 10 км н/о +17.9 +16.3 90 +18 +18 1008.7 1007.9
15 20.06 В 3 10 км н/о +18.3 +15.6 84 +19 +19 1008.8 1008.0
16 20.06 В 2 12 км н/о +17.5 +15.1 86 +18 +18 1008.9 1008.1
17 20.06 В 2 13 км н/о +17.2 +14.9 86 +18 +18 1008.4 1007.6
18 20.06 В 1 7000 м дымка н/о +17.1 +15.3 89 +19 +19 1008.5 1007.7
19 20.06 ЮВ 4 11 км н/о +17.8 +15.8 88 +18 +18 1008.5 1007.7
20 20.06 ЮВ 5 13 км н/о +19.9 +15.1 74 +22 +22 комфорт 1008.4 1007.6
21 20.06 В 3 15 км н/о +20.9 +15.9 73 +25 +25 комфорт 1008.4 1007.6
22 20.06 ЮВ 3 12 км н/о +22.7 +17.2 71 +28 +28 душно 1008.0 1007.2
23 20.06 ЮВ 4 20 км н/о +24.4 +16.7 62 +28 +28 душно 1007.8 1007.0
00 21.06 СЗ 2 20 км н/о +23.3 +17.5 70 +29 +29 душно 1007.5 1006.7 +16.9
01 21.06 СЗ 2 20 км н/о +22.1 +17.5 75 +27 +27 душно 1007.7 1006.9
02 21.06 В 1 20 км н/о +24.1 +18.3 70 +29 +29 душно 1007.4 1006.6
03 21.06 СЗ 2 18 км н/о +24.6 +17.8 66 +29 +29 душно 1007.3 1006.5
04 21.06 СЗ 2 20 км н/о +25.5 +18.4 65 +30 +30 душно 1007.2 1006.4
05 21.06 СЗ 2 20 км н/о +26.5 +19.4 65 +32 +32 очень
душно
1006.9 1006.1
06 21.06 СЗ 2 20 км н/о +25.4 +18.4 65 +30 +30 душно 1006.4 1005.6
07 21.06 З 1 20 км н/о +25.9 +17.3 59 +30 +30 душно 1006.0 1005.2
08 21.06 ЮЗ 2 19 км н/о +24.8 +18.5 68 +29 +29 душно 1005.5 1004.7
09 21.06 СЗ 2 15 км н/о +23.7 +18.6 73 +28 +28 душно 1006.0 1005.2
10 21.06 В 3 13 км н/о +23.0 +18.6 76 +29 +29 очень
душно
1006.1 1005.3
11 21.06 ЮВ 5 14 км н/о +21.9 +17.7 77 +26 +26 душно 1006.2 1005.4
12 21.06 ЮЗ 1 15 км н/о +21.5 +17.3 77 +26 +26 душно 1006.8 1006.0 +27.5
13 21.06 ЮВ 6 16 км н/о +21.7 +14.9 65 +25 +25 комфорт 1006.3 1005.5
15 21.06 Ю 3 6000 м дождь н/о +21.0 +18.6 86 +26 +26 душно 1008.2 1007.4
16 21.06 ЮВ 1 9000 м слаб. дождь н/о +19.7 +18.7 94 +24 +24 комфорт 1007.5 1006.7
17 21.06 СЗ 1 9000 м слаб. дождь н/о +19.7 +18.7 94 +24 +24 комфорт 1006.9 1006.1
18 21.06 СВ 2 8000 м слаб. дождь н/о +19.2 +18.4 95 +22 +22 комфорт 1006.3 1005.5 2
19 21.06 В 4 11 км слаб. дождь н/о +19.2 +18.0 93 +21 +21 комфорт 1005.5 1004.7
20 21.06 ЮВ 5 12 км слаб. дождь н/о +19.8 +17.4 86 +22 +22 комфорт 1005.4 1004.6
21 21.06 В 5 12 км слаб. дождь н/о +19.9 +17.3 85 +23 +23 комфорт 1005.4 1004.6
22 21.06 В 5 19 км слаб. дождь н/о +20.2 +17.2 83 +23 +23 комфорт 1005.3 1004.5
23 21.06 В 8 14 км слаб. дождь н/о +21.4 +17.6 79 +26 +26 душно 1004.8 1004.0
00 22.06 ЮВ 4 16 км слаб. дождь н/о +21.1 +18.7 86 +25 +25 комфорт 1005.1 1004.3 +19.0 3
01 22.06 В 4 15 км слаб. дождь н/о +21.6 +18.6 83 +26 +26 душно 1004.8 1004.0
02 22.06 В 4 20 км слаб. дождь н/о +21.5 +18.5 83 +26 +26 душно 1004.1 1003.3
03 22.06 В 1 15 км в посл. час дождь н/о +23.3 +19.1 77 +30 +30 очень
душно
1003.9 1003.1
04 22.06 С 2 18 км н/о +23.0 +19.4 80 +29 +29 очень
душно
1003.7 1002.9
05 22.06 Ю 2 18 км слаб. дождь н/о +21.9 +19.3 85 +27 +27 душно 1003.7 1002.9
06 22.06 СЗ 2 20 км в посл. час дождь н/о +22.3 +19.5 84 +28 +28 душно 1003.4 1002.6 0.5
07 22.06 З 2 20 км н/о +23.5 +17.7 70 +28 +28 душно 1003.3 1002.5
08 22.06 СЗ 2 20 км н/о +23.2 +16.5 66 +28 +28 душно 1003.1 1002.3
09 22.06 С 2 20 км н/о +22.8 +17.1 70 +28 +28 душно 1003.4 1002.6
10 22.06 ЮВ 2 13 км н/о +21.1 +18.7 86 +25 +25 комфорт 1003.8 1003.0
11 22.06 В 3 11 км н/о +20.1 +18.2 89 +24 +24 комфорт 1003.9 1003.1
12 22.06 В 3 16 км н/о +20.2 +17.2 83 +24 +24 комфорт 1004.2 1003.4 +24.3 0.5
13 22.06 В 3 11 км н/о +20.5 +16.7 79 +24 +24 комфорт 1003.9 1003.1
14 22.06 В 4 16 км н/о +20.2 +16.8 81 +23 +23 комфорт 1003.8 1003.0
15 22.06 Ю 4 12 км н/о +21.4 +17.2 77 +25 +25 комфорт 1004.0 1003.2
16 22.06 Ю 3 10 км н/о +20.7 +18.8 89 +25 +25 комфорт 1004.2 1003.4
17 22.06 ЮЗ 2 12 км в посл. час дождь н/о +20.3 +17.9 86 +24 +24 комфорт 1004.2 1003.4
18 22.06 ЮЗ 3 13 км {дождь} н/о +20.0 +18.0 88 +23 +23 комфорт 1004.2 1003.4 0.0
19 22.06 ЮЗ 2 11 км н/о +19.6 +17.4 87 +23 +23 комфорт 1004.7 1003.9
20 22.06 З 3 10 км н/о +19.9 +17.5 86 +23 +23 комфорт 1005.0 1004.2
21 22.06 ЮЗ 4 12 км н/о +20.2 +17.8 86 +24 +24 комфорт 1005.2 1004.4
22 22.06 ЮЗ 5 12 км н/о +20.3 +18.1 87 +24 +24 комфорт 1005.8 1005.0
23 22.06 З 2 10 км н/о +20.3 +17.9 86 +24 +24 комфорт 1006.1 1005.3
00 23.06 З 2 15 км н/о +20.9 +18.1 84 +26 +26 душно 1005.9 1005.1 +19.2 0.0
01 23.06 З 2 10 км н/о +21.2 +17.4 79 +25 +25 комфорт 1006.1 1005.3
02 23.06 З 2 18 км н/о +21.6 +18.0 80 +26 +26 душно 1006.1 1005.3
03 23.06 З 2 10 км н/о +22.2 +17.6 75 +27 +27 душно 1006.1 1005.3
04 23.06 З 3 16 км н/о +22.1 +17.7 76 +27 +27 душно 1005.9 1005.1
05 23.06 З 3 20 км н/о +22.0 +18.0 78 +27 +27 душно 1005.8 1005.0
06 23.06 З 3 20 км н/о +21.5 +17.1 76 +25 +25 комфорт 1005.7 1004.9
07 23.06 З 3 20 км н/о +21.6 +17.0 75 +26 +26 душно 1005.9 1005.1
08 23.06 З 2 20 км н/о +21.2 +17.2 78 +25 +25 комфорт 1006.6 1005.8
09 23.06 З 3 20 км н/о +20.7 +16.7 78 +25 +25 комфорт 1006.9 1006.1
10 23.06 З 3 13 км н/о +20.3 +17.1 82 +24 +24 комфорт 1007.1 1006.3
11 23.06 З 3 14 км н/о +20.2 +17.0 82 +23 +23 комфорт 1007.4 1006.6
12 23.06 СЗ 3 11 км н/о +20.2 +17.2 83 +24 +24 комфорт 1008.1 1007.3 +23.3
13 23.06 С 2 14 км н/о +20.2 +17.2 83 +24 +24 комфорт 1008.4 1007.6
14 23.06 СВ 1 12 км н/о +19.7 +17.3 86 +23 +23 комфорт 1008.4 1007.6
15 23.06 В 2 12 км н/о +19.2 +17.2 88 +22 +22 комфорт 1008.4 1007.6
16 23.06 В 1 15 км н/о +19.2 +17.2 88 +23 +23 комфорт 1008.2 1007.4
17 23.06 В 2 12 км н/о +18.8 +16.8 88 +21 +21 комфорт 1008.2 1007.4
18 23.06 СВ 3 10 км н/о +18.5 +16.3 87 +20 +20 1008.5 1007.7
19 23.06 СВ 3 14 км н/о +18.5 +15.8 84 +20 +20 1008.3 1007.5
20 23.06 В 2 17 км н/о +18.6 +15.7 83 +20 +20 1008.6 1007.8
21 23.06 В 1 13 км н/о +18.8 +16.4 86 +22 +22 комфорт 1009.1 1008.3
22 23.06 СЗ 1 10 км н/о +19.8 +16.7 82 +24 +24 комфорт 1009.4 1008.6
23 23.06 СЗ 3 14 км н/о +20.1 +17.1 83 +23 +23 комфорт 1010.0 1009.2
00 24.06 СЗ 4 17 км н/о +20.1 +17.7 86 +23 +23 комфорт 1010.2 1009.4 +18.2
01 24.06 СЗ 4 15 км н/о +20.0 +17.8 87 +23 +23 комфорт 1010.3 1009.5
02 24.06 СЗ 5 15 км н/о +20.8 +17.8 83 +25 +25 комфорт 1010.1 1009.3
03 24.06 СЗ 3 15 км н/о +20.9 +18.1 84 +25 +25 комфорт 1010.6 1009.8
04 24.06 С 5 17 км н/о +20.8 +18.0 84 +25 +25 комфорт 1010.6 1009.8
05 24.06 С 4 15 км н/о +21.0 +18.2 84 +26 +26 душно 1010.8 1010.0
06 24.06 СЗ 4 19 км н/о +20.9 +18.1 84 +25 +25 комфорт 1011.0 1010.2
07 24.06 С 3 20 км н/о +20.8 +18.0 84 +25 +25 комфорт 1011.1 1010.3
08 24.06 С 3 20 км н/о +21.0 +17.8 82 +26 +26 душно 1011.4 1010.6

 

Местоположение метеостанции Айкава (Япония): широта 38.03 долгота 138.23 высота над уровнем моря 17 м.

В архиве по умолчанию представлена погода в Айкаве за последнюю неделю. Архивные данные за месяц целиком и за предыдущие месяцы, начиная с января 2011 года, Вы можете получить, выбрав интересующий диапазон дат из раскрывающегося списка и нажав кнопку "Ввод!".


*Определитесь, кто Вы:
робот инопланетянин человек

Внимание! Время в таблицах - всемирное. Для получения местного времени необходимо прибавить поправку, которая равна 9 ч.

Смотрите также архив погоды в соседних городах и на ближайших метеорологических станциях:

Погода в Ниигате (Япония) (73 км)
Погода в Такаде (Япония) (103 км)
Погода в Вадзиме (Япония) (136 км)
Погода в Нагано (Япония) (151 км)
Погода в Вакамацу (Япония) (160 км)
Погода в Тояме (Япония) (172 км)
Погода в Фушики (Япония) (172 км)
Погода в Сакате (Япония) (172 км)
Погода в Никко (Япония) (183 км)
Погода в Ямаге (Япония) (187 км)

Пояснения к столбцам:

Ветер - указаны скорость ветра в м/с - средняя за 10 мин, порывы в срок и между сроками (в фигурных скобках) и направление, откуда дует ветер: С - северный, СВ - северо-восточный, В - восточный, ЮВ - юго-восточный, Ю - южный, ЮЗ - юго-западный, З - западный, СЗ - северо-западный.
Видимость - горизонтальная дальность видимости в метрах или километрах. При видимости от 1 до 10 км при отсутствии осадков обычно наблюдается дымка, при ухудшении видимости до 1 км и менее - туман. В сухую погоду видимость может ухудшаться дымом, пылью или мглою.
Явления - указаны атмосферные явления, наблюдавшиеся в срок или в последний час перед сроком; фигурными скобками обозначены явления, наблюдавшиеся между сроками (за 1-3 часа до срока); квадратными скобками обозначены град или гололедные отложения с указанием их диаметра в мм.
Облачность - указаны через наклонную черту общая и нижняя облачность в баллах и высота нижней границы облаков в метрах; квадратными скобками обозначены формы облаков: Ci - перистые, Cs - перисто-слоистые, Cc - перисто-кучевые, Ac - высококучевые, As - высокослоистые, Sc - слоисто-кучевые, Ns - слоисто-дождевые, Cu - кучевые, Cb - кучево-дождевые. Подробнее классификацию облаков см. в Атласе облаков (PDF).
T - Температура воздуха - температура, измеренная на высоте 2 м над землей.
Td - Температура точки росы - температура, при понижении до которой содержащийся в воздухе водяной пар достигнет насыщения.
f - Относительная влажность воздуха - влажноcть воздуха, измеренная на высоте 2 м над землей.
Te - Эффективная температура - температура, которую ощущает одетый по сезону человек в тени. Характеристика душности погоды. При расчете учитывается влияние влажности воздуха и скорости ветра на теплоощущения человека.
Tes - Эффективная температура на солнце - температура, которую ощущает человек, с поправкой на солнечный нагрев. Характеристика знойности погоды. Зависит от высоты солнца над горизонтом, облачности и скорости ветра. Ночью, в пасмурную погоду, а также при ветре 12 м/с и более поправка равна нулю.
P - Атмосферное давление - приведенное к уровню моря атмосферное давление.
Po - Атмосферное давление - измеренное на уровне метеостанции атмосферное давление.
Tmin - Минимальная температура - минимум температуры воздуха на высоте 2 м над землей.
Tmax - Максимальная температура - максимум температуры воздуха на высоте 2 м над землей.
R - Количество осадков - Количество выпавших осадков за период времени, мм. При наведении курсора мыши на число - период времени, за который выпало указанное количество осадков.
R24 - Количество осадков - Количество выпавших осадков за 24 часа, мм.
S - Снежный покров - Высота снежного покрова, см. При наведении курсора мыши на число - состояние снежного покрова и степень покрытия местности в баллах.